Location: Unspecified
(0.0000°N, 0.0000°E)
Time: 09:30:13
(UTC+00:00)

ARIANE 2 DEB - Pass Details

Date: 11 March 2026
Orbit: 598 x 35366 km, 8.4° (Epoch: 18 September)

Event Time Altitude Azimuth Distance (km) Brightness Sun altitude
Rises 17:55:24 0° 261° (W) 13,986 ? 3.6°
Reaches altitude 10° 18:13:10 10° 258° (WSW) 7,997 ? -0.8°
Maximum altitude 18:29:45 58° 181° (S) 1,334 ? -4.9°
Drops below altitude 10° 18:33:57 10° 100° (E) 2,188 ? -6.0°
Enters shadow 18:34:26 - 98° (E) 2,402 ? -6.1°
